Regional Weather Roundup
Issued by NWS

Home | Current Version | Previous Version | Graphics & Text | Print | Product List | Glossary On
Versions: 1 2 3 4 5 6 7 8 9 10 11 12 13 14 15 16 17 18 19 20 21 22 23 24 25 26 27 28 29 30 31 32 33 34 35 36 37 38 39 40 41 42 43 44 45 46 47 48 49 50
000
ASUS43 KBIS 040410
RWRND

NORTH DAKOTA REGIONAL WEATHER ROUNDUP
NATIONAL WEATHER SERVICE BISMARCK ND
1100 PM CDT SUN MAY 03 2015

NOTE: "FAIR" INDICATES FEW OR NO CLOUDS BELOW 12,000 FEET WITH NO
SIGNIFICANT WEATHER AND/OR OBSTRUCTIONS TO VISIBILITY.


NDZ001>003-009>011-017-040500-
NORTHWEST NORTH DAKOTA

CITY           SKY/WX    TMP DP  RH WIND       PRES   REMARKS
WILLISTON      PTCLDY    46  20  35 NE5       30.10R
MINOT          CLEAR     47  27  45 NW9       30.07R
MINOT AFB      CLEAR     38  24  55 NW6       30.07R
$$

NDZ018>021-031>035-040>046-040500-
SOUTHWEST NORTH DAKOTA

CITY           SKY/WX    TMP DP  RH WIND       PRES   REMARKS
BISMARCK       PTCLDY    53  22  29 N6        30.08R
DICKINSON      MOCLDY    42  27  55 S5        30.08R
GARRISON         N/A     45  27  49 N5        30.08R
HETTINGER ARPT PTCLDY    44  26  49 NE9       30.10R
$$

NDZ004>008-012>016-024-026-027-054-040500-
NORTHEAST NORTH DAKOTA

CITY           SKY/WX    TMP DP  RH WIND       PRES   REMARKS
GRAND FORKS    PTCLDY    49  29  46 N10       30.00R
GRND FRKS AFB  PTCLDY    49  26  40 NW8       30.00R
DEVILS LAKE    CLEAR     45  30  57 NW8       30.04R
$$

NDZ022-023-025-028>030-036>039-047>053-040500-
SOUTHEAST NORTH DAKOTA

CITY           SKY/WX    TMP DP  RH WIND       PRES   REMARKS
FARGO          CLEAR     51  26  37 NW7       29.99R
JAMESTOWN      PTCLDY    43  24  47 NW8       30.04R
$$



USA.gov is the U.S. government's official web portal to all federal, state and local government web resources and services.